sat.trackr.live / text

‹ back to catalog

STARLINK-37770

NORAD 69225 · 2026-115Q

PAYLOAD ACTIVE UNKNOWN

§ Identity

Operator
Country
US
Launch date
2026-05-26
Launch site
AFWTR
Launch vehicle
Mass (kg)
RCS (m²)

Purposes: comms

External: N2YO · Heavens-Above · Gunter

§ Orbital elements

Epoch: 2026-09-19T11:15:46.565280Z

Period
93.91 min
Inclination
97.2816°
Eccentricity
0.0001396
Mean motion
15.33454283 rev/d
Perigee alt
464.6 km
Apogee alt
466.5 km
Semi-major
6,843.7 km
B*
3.9893e-4
RAAN
278.5948°
Arg perigee
110.3313°
Mean anomaly
249.8080°
Rev number
1,913

§ Raw data

STARLINK-377701 69225U 26115Q   26262.46928895  .00012830  00000+0  39893-3 0  99962 69225  97.2816 278.5948 0001396 110.3313 249.8080 15.33454283 19136

JSON: /api/v1/satellites/69225 · /tle

For live sub-satellite position, see the globe view (requires WebGL).

§ Visibility from observer

Set your observer location to see the next 7 days of passes ≥ 10°. The values pass through the URL so the page stays shareable.

No JS? Fill the form by hand. The geolocation button needs JavaScript.